Wind_Speed
41 43 39 32 29 28 27 28 30 30 28 25 22 20 19 18 18 18 17 16 16 16 15 15 16 17 17 17 17 16 16 16 16 16 15 13 12 12 12 12 12 12
43 46 44 36 31 30 29 30 31 31 29 26 23 21 20 20 19 18 17 17 17 17 17 16 16 17 17 16 15 16 17 17 16 16 16 14 12 12 12 13 13 13
49 49 47 40 34 32 30 31 32 32 30 27 25 25 24 24 23 21 20 18 19 19 18 18 17 16 17 16 15 15 16 17 16 16 16 15 13 12 12 14 14 14
52 52 50 44 38 34 31 32 33 33 32 28 24 23 25 27 27 25 23 21 20 20 20 20 19 18 17 16 15 14 15 17 16 16 17 16 14 13 13 14 15 15
47 49 49 46 43 38 35 36 36 34 32 29 23 22 24 26 26 26 25 24 23 22 22 22 21 20 18 17 16 15 15 16 16 16 17 17 16 14 13 14 15 16
47 47 48 48 46 43 39 39 40 38 35 30 26 25 27 28 27 26 25 25 26 25 23 23 22 22 20 19 18 16 15 15 16 16 17 17 17 16 15 15 15 16
48 47 47 48 48 46 42 40 41 42 41 38 34 32 33 33 32 30 27 26 27 28 26 24 23 22 21 20 19 18 17 16 16 16 17 18 18 17 16 15 16 16
47 46 46 47 49 48 45 42 41 40 43 45 44 41 39 36 35 35 33 29 28 29 30 28 25 23 22 21 21 20 19 18 16 16 17 18 18 17 17 16 16 16
46 45 46 48 50 50 47 45 42 40 40 43 43 43 41 40 39 39 37 34 31 30 31 32 29 26 25 24 23 22 20 19 18 17 18 18 18 18 17 17 17 16
47 46 45 47 49 50 49 48 46 45 43 42 41 42 43 42 42 41 40 38 35 32 32 34 33 30 28 27 25 24 22 20 20 19 19 19 18 18 18 18 17 17
48 47 47 48 49 50 49 49 48 48 47 45 44 44 44 44 44 44 42 41 40 36 32 34 35 33 31 29 27 26 25 22 22 22 21 20 19 18 18 19 18 17
46 47 48 48 50 51 50 49 48 48 48 48 47 47 46 46 47 46 45 43 42 38 34 33 36 36 33 30 28 27 27 25 24 23 23 21 20 19 19 19 19 18
46 48 48 49 50 51 51 49 47 47 49 49 49 48 47 47 48 47 46 45 43 40 35 34 35 36 35 33 30 27 27 28 26 25 24 23 21 20 19 19 19 19
47 48 49 49 49 50 50 51 50 48 48 49 50 50 49 48 48 48 47 47 45 42 37 35 35 36 35 34 31 28 27 28 28 27 25 24 23 21 19 20 20 20
46 46 48 49 49 49 48 50 51 50 48 48 50 52 52 50 49 48 48 48 47 44 39 36 36 35 34 33 32 29 27 28 29 28 27 25 25 23 21 21 22 21
42 43 45 47 50 51 48 48 51 54 52 48 48 50 51 51 50 49 48 47 47 46 43 39 37 35 33 33 32 30 28 29 30 29 28 27 26 25 23 22 23 22
39 41 43 46 49 51 50 50 51 56 57 51 48 48 48 50 50 49 48 47 47 47 46 43 39 36 34 33 32 31 29 29 30 30 29 28 28 27 25 24 24 23
41 41 42 45 48 50 52 52 51 55 57 55 51 49 47 48 49 49 48 47 47 47 47 46 42 38 36 34 33 32 31 30 30 30 31 30 28 28 27 26 25 24
48 47 46 45 47 49 51 52 53 55 57 57 55 51 48 47 47 47 47 48 48 47 46 47 44 40 37 36 34 33 32 31 30 31 32 31 29 29 28 29 28 25
47 50 52 50 48 49 49 50 54 56 56 56 56 54 52 50 48 47 47 47 48 48 46 46 45 42 39 37 35 34 33 32 31 31 32 32 30 29 30 31 30 27
43 46 50 51 50 49 49 48 51 55 55 55 55 56 55 53 50 48 48 47 47 47 47 47 46 44 40 37 36 35 34 34 32 32 32 32 31 31 31 33 32 29
45 46 48 51 51 50 50 49 49 51 55 56 57 57 56 54 53 50 49 48 46 45 46 46 47 46 42 39 37 36 35 35 34 32 31 31 32 32 33 34 33 31
45 46 47 50 52 53 51 50 49 49 52 55 57 59 58 57 56 54 51 50 47 46 46 45 47 47 44 40 38 36 36 36 34 32 30 31 32 33 33 34 34 32
48 47 46 46 49 53 53 51 50 49 50 51 54 57 59 59 58 56 54 52 49 48 47 46 47 48 45 42 39 37 37 37 35 33 30 30 32 33 33 35 35 33
53 51 49 45 45 49 53 53 50 49 50 50 51 54 56 59 60 59 56 53 50 49 48 47 48 48 46 43 40 38 38 38 37 34 31 31 32 32 32 34 35 35
55 57 56 53 49 49 51 52 50 49 51 50 50 52 55 58 61 61 58 53 50 49 48 48 48 48 46 44 40 39 39 39 38 35 32 31 31 31 32 33 35 35
Wind_Direction
222 224 224 231 240 238 237 238 233 229 228 229 232 233 235 238 243 246 248 247 247 248 251 256 263 269 275 279 283 285 285 287 290 292 294 298 303 300 290 282 276 275
228 230 227 229 239 237 233 236 236 232 229 230 232 235 239 242 245 247 247 247 248 249 251 254 259 265 270 276 282 285 285 286 288 289 289 291 297 299 291 282 275 273
234 231 227 230 238 237 233 233 234 233 232 233 236 240 244 248 249 248 246 246 247 249 251 255 258 261 266 272 278 284 285 286 287 287 286 287 291 295 292 284 278 274
235 230 228 231 235 235 234 232 231 232 233 234 238 244 248 249 250 248 246 246 247 249 251 255 258 259 262 268 273 279 284 285 285 285 285 286 287 289 288 285 281 276
231 230 231 232 232 234 238 237 233 231 233 236 239 245 250 250 249 248 246 246 247 248 251 254 258 259 259 263 268 274 279 283 284 283 283 283 284 285 285 284 282 277
233 232 232 230 230 235 240 241 238 235 234 237 241 247 252 253 252 250 249 248 247 247 249 251 255 257 258 260 264 269 274 279 282 280 280 280 280 282 282 282 282 279
234 234 233 232 231 234 239 240 241 239 236 238 244 249 252 255 256 255 253 252 250 248 248 249 251 253 255 258 262 266 269 273 278 279 278 279 278 278 280 281 282 281
233 235 236 236 234 235 239 240 242 242 240 242 246 247 249 254 257 257 256 255 255 253 249 247 247 248 253 259 263 266 268 269 273 278 278 277 277 277 277 278 280 283
232 234 235 236 236 237 239 240 241 242 242 242 242 242 247 252 254 256 257 255 256 257 253 249 246 247 251 259 264 266 267 269 268 272 276 276 277 277 275 275 277 281
234 234 234 234 235 237 238 238 240 242 243 242 241 242 246 250 252 255 256 255 256 257 257 253 248 247 250 255 262 265 267 269 267 267 271 274 276 276 273 274 275 279
236 235 235 235 234 235 236 236 238 241 244 244 243 244 247 249 252 254 255 257 257 257 259 258 251 249 249 251 258 263 265 266 265 264 266 270 275 276 273 272 273 276
239 237 236 236 236 236 235 235 236 238 241 243 243 243 247 250 252 252 253 256 256 254 257 260 255 250 248 249 253 259 262 264 264 262 263 266 272 276 275 271 271 273
242 239 236 235 236 237 237 236 236 237 237 239 241 242 245 248 248 249 251 254 254 253 255 260 258 252 248 248 251 256 259 261 263 262 261 262 267 272 274 271 269 269
242 240 238 236 236 238 238 237 237 238 238 238 239 242 244 244 245 247 249 251 252 251 253 258 259 254 249 247 249 253 256 258 261 261 260 259 262 267 270 270 268 266
240 240 240 239 237 236 236 237 237 238 240 241 240 241 242 242 244 246 247 248 249 249 251 257 260 256 252 249 248 250 253 257 259 260 259 258 258 262 265 267 266 264
238 238 241 242 240 236 234 236 237 237 239 242 241 240 241 241 243 245 245 245 247 247 249 255 261 260 255 252 249 246 249 255 257 258 257 255 256 258 260 263 265 265
238 237 238 241 241 238 235 235 237 237 237 240 241 239 239 240 241 243 243 243 246 247 248 252 259 261 258 255 250 245 247 253 255 256 255 253 254 255 257 261 264 265
240 239 239 239 237 236 234 233 234 235 235 238 240 238 237 240 241 242 242 242 244 246 247 250 256 261 260 257 252 245 246 252 253 254 254 252 252 253 254 258 261 264
244 243 242 241 237 234 232 230 231 231 233 237 239 237 236 238 240 242 243 243 243 246 246 248 253 259 260 257 252 245 246 250 251 253 253 251 251 251 252 255 259 262
246 246 245 245 243 238 236 233 231 230 233 237 239 238 237 237 238 241 243 243 244 245 246 247 251 257 259 257 251 245 245 248 250 252 253 250 249 250 250 253 256 259
245 245 244 246 247 246 244 241 236 234 235 237 239 239 239 238 237 239 241 243 245 245 246 246 249 254 258 256 249 244 245 247 248 250 251 249 249 249 250 253 255 256
244 242 240 242 245 246 247 245 242 239 237 237 239 240 241 240 239 238 239 242 245 245 246 246 246 252 257 254 247 244 245 246 246 248 250 249 249 250 251 254 255 255
245 243 241 240 239 241 243 244 245 244 240 239 239 240 241 241 240 239 239 241 243 245 246 246 245 249 255 253 246 243 244 244 244 246 249 248 249 251 253 255 256 255
243 247 245 241 237 237 238 240 244 246 243 241 242 241 241 243 243 243 241 241 243 244 245 246 246 248 252 251 245 243 244 244 242 245 248 248 249 252 254 256 256 254
239 246 249 248 242 239 238 237 240 246 247 245 244 244 243 243 244 244 242 240 241 243 244 244 245 247 249 249 245 243 243 242 241 244 247 247 249 254 256 257 257 255
236 240 245 248 248 246 244 242 240 243 247 249 248 247 247 245 243 241 240 239 239 241 242 241 241 243 245 246 245 243 242 241 241 243 246 247 250 256 259 259 258 256
Height
3134 3136 3138 3140 3142 3144 3145 3147 3148 3150 3152 3154 3155 3157 3158 3159 3160 3161 3162 3163 3164 3165 3166 3166 3167 3167 3167 3167 3167 3167 3167 3167 3167 3167 3167 3167 3167 3166 3166 3166 3165 3165
3130 3133 3135 3137 3138 3140 3142 3144 3146 3148 3149 3151 3153 3154 3155 3157 3158 3159 3160 3161 3162 3163 3163 3164 3165 3165 3165 3164 3164 3164 3165 3165 3165 3165 3165 3165 3165 3164 3164 3164 3164 3163
3126 3129 3131 3132 3135 3137 3139 3141 3143 3145 3147 3148 3149 3151 3153 3154 3155 3156 3158 3159 3160 3161 3161 3162 3162 3163 3162 3162 3162 3162 3162 3162 3163 3163 3163 3163 3163 3163 3162 3162 3161 3161
3121 3124 3126 3128 3131 3134 3136 3137 3139 3141 3143 3145 3147 3148 3150 3151 3153 3154 3155 3156 3157 3158 3159 3159 3160 3160 3160 3160 3159 3159 3160 3160 3160 3161 3161 3161 3161 3161 3160 3160 3159 3159
3117 3119 3122 3124 3127 3130 3131 3132 3135 3137 3139 3142 3144 3145 3147 3148 3150 3151 3152 3153 3154 3155 3156 3157 3157 3158 3158 3157 3157 3157 3157 3157 3158 3158 3158 3158 3158 3158 3158 3158 3157 3157
3113 3115 3117 3120 3123 3125 3126 3127 3130 3133 3135 3138 3140 3142 3144 3146 3147 3148 3149 3150 3151 3152 3153 3154 3154 3155 3155 3155 3154 3155 3155 3155 3155 3155 3155 3155 3156 3156 3156 3156 3155 3155
3108 3111 3113 3116 3118 3120 3121 3123 3126 3128 3131 3134 3136 3139 3141 3142 3144 3145 3146 3147 3147 3148 3149 3151 3151 3152 3152 3152 3152 3152 3152 3152 3152 3152 3152 3153 3153 3153 3153 3153 3153 3153
3104 3106 3109 3111 3113 3115 3117 3119 3121 3124 3127 3130 3131 3135 3137 3139 3140 3142 3143 3144 3144 3145 3146 3147 3148 3149 3149 3149 3149 3149 3149 3149 3150 3149 3149 3150 3150 3150 3151 3151 3150 3150
3099 3101 3104 3106 3108 3110 3112 3115 3117 3120 3123 3125 3127 3130 3133 3134 3136 3137 3138 3140 3141 3141 3142 3143 3144 3145 3145 3145 3146 3146 3146 3146 3147 3147 3146 3147 3147 3148 3148 3148 3148 3148
3093 3096 3098 3101 3103 3105 3107 3110 3113 3115 3118 3120 3122 3125 3127 3129 3132 3133 3134 3135 3136 3138 3138 3139 3140 3141 3142 3142 3143 3143 3143 3143 3143 3143 3143 3144 3144 3145 3145 3145 3145 3145
3088 3091 3093 3095 3098 3100 3102 3105 3108 3110 3112 3114 3117 3120 3122 3125 3127 3128 3129 3131 3132 3133 3135 3135 3136 3137 3138 3139 3139 3139 3140 3140 3140 3140 3140 3140 3141 3141 3142 3142 3142 3142
3083 3085 3088 3091 3094 3096 3098 3100 3103 3105 3106 3109 3111 3114 3117 3119 3121 3123 3125 3126 3128 3129 3130 3131 3132 3133 3134 3135 3136 3136 3136 3136 3136 3136 3137 3137 3138 3138 3138 3139 3139 3139
3077 3080 3083 3087 3090 3092 3094 3096 3098 3100 3101 3103 3106 3109 3112 3114 3115 3118 3120 3122 3123 3125 3126 3127 3127 3128 3130 3131 3132 3132 3132 3132 3133 3133 3133 3134 3134 3134 3135 3135 3135 3136
3072 3075 3079 3082 3085 3087 3090 3092 3094 3095 3096 3098 3101 3104 3106 3108 3110 3113 3115 3117 3118 3120 3121 3122 3123 3123 3125 3127 3128 3128 3129 3128 3129 3129 3129 3130 3130 3131 3131 3131 3132 3132
3067 3071 3074 3077 3079 3082 3084 3087 3088 3090 3092 3094 3095 3098 3100 3103 3106 3108 3110 3112 3113 3114 3116 3117 3118 3119 3121 3122 3123 3124 3124 3125 3125 3125 3126 3126 3127 3127 3128 3128 3128 3129
3063 3066 3069 3071 3073 3076 3079 3081 3083 3085 3087 3089 3090 3092 3095 3098 3100 3102 3104 3106 3108 3109 3111 3112 3113 3115 3117 3118 3119 3120 3120 3120 3120 3121 3121 3122 3122 3123 3123 3124 3124 3125
3058 3061 3063 3065 3067 3071 3074 3076 3078 3080 3082 3085 3086 3087 3090 3092 3095 3096 3098 3101 3102 3104 3105 3107 3108 3111 3112 3113 3114 3115 3116 3116 3116 3116 3117 3118 3118 3119 3119 3120 3120 3121
3054 3056 3058 3060 3062 3065 3068 3071 3073 3075 3077 3079 3081 3082 3085 3087 3088 3090 3092 3095 3097 3098 3100 3101 3104 3106 3108 3108 3109 3111 3111 3111 3111 3111 3112 3113 3114 3114 3115 3115 3116 3117
3048 3050 3052 3054 3057 3059 3062 3065 3067 3068 3070 3073 3075 3077 3079 3081 3082 3084 3087 3089 3091 3093 3095 3097 3099 3101 3103 3103 3105 3106 3106 3106 3106 3106 3107 3108 3110 3110 3111 3111 3112 3113
3041 3043 3046 3048 3051 3053 3056 3058 3059 3061 3064 3067 3070 3072 3073 3074 3076 3079 3081 3083 3085 3088 3090 3092 3094 3096 3098 3099 3100 3101 3101 3101 3101 3102 3102 3104 3105 3106 3106 3107 3108 3109
3035 3037 3039 3042 3044 3047 3049 3051 3053 3055 3058 3060 3063 3065 3067 3069 3071 3073 3075 3077 3080 3083 3084 3086 3089 3091 3093 3094 3095 3096 3097 3096 3096 3097 3098 3099 3100 3101 3101 3102 3103 3105
3028 3029 3031 3035 3038 3041 3042 3044 3046 3048 3051 3054 3057 3059 3061 3063 3065 3067 3069 3072 3075 3077 3078 3080 3084 3086 3088 3089 3091 3091 3092 3091 3091 3092 3093 3094 3095 3096 3096 3097 3098 3100
3023 3023 3025 3028 3031 3033 3035 3038 3040 3042 3045 3047 3050 3052 3054 3056 3058 3060 3063 3066 3068 3070 3072 3075 3078 3081 3082 3084 3085 3086 3086 3086 3087 3087 3088 3089 3090 3091 3091 3092 3093 3095
3020 3019 3019 3021 3024 3026 3028 3031 3034 3036 3039 3041 3043 3045 3047 3050 3052 3054 3057 3059 3062 3064 3067 3070 3072 3075 3077 3079 3080 3081 3081 3081 3082 3082 3083 3084 3085 3085 3086 3086 3087 3089
3017 3015 3013 3014 3018 3021 3022 3025 3028 3031 3034 3035 3037 3039 3041 3043 3046 3048 3050 3052 3055 3058 3061 3064 3067 3069 3071 3073 3075 3076 3076 3076 3077 3077 3078 3079 3080 3080 3081 3081 3082 3084
3012 3012 3010 3009 3012 3015 3018 3020 3022 3025 3028 3030 3031 3032 3034 3035 3037 3040 3043 3046 3048 3052 3056 3058 3060 3064 3066 3068 3069 3071 3071 3071 3071 3072 3073 3074 3075 3075 3075 3076 3077 3078